1521180000.57,12286,9.0,72278.5,-5.71,-6.47,-6.47,0,*5C
1521180001.78,12287,8.94,72280.3,-5.71,-6.51,-6.47,0,*5A
1521180002.98,12288,8.94,72282.3,-5.71,-6.51,-6.51,0,*52
1521180004.21,12289,9.0,72278.0,-5.73,-6.55,-6.55,0,*51
1521180005.44,12290,8.94,72276.3,-5.73,-6.51,-6.51,0,*59
1521180006.66,12291,9.0,72272.3,-5.73,-6.51,-6.55,0,*5C
1521180007.89,12292,8.94,72268.8,-5.73,-6.55,-6.55,0,*5B
1521180009.09,12293,8.94,72266.8,-5.71,-6.47,-6.51,0,*5F
1521180010.3,12294,9.0,72270.5,-5.71,-6.51,-6.51,0,*5F
1521180011.51,12295,9.0,72276.0,-5.71,-6.51,-6.51,0,*5E
1521180012.73,12296,8.94,72276.5,-5.73,-6.55,-6.55,0,*5F
1521180013.96,12297,8.94,72276.0,-5.73,-6.55,-6.55,0,*5E
1521180015.16,12298,8.94,72278.0,-5.71,-6.51,-6.47,0,*54
1521180016.39,12299,8.94,72276.5,-5.73,-6.55,-6.55,0,*50
1521180017.59,12300,8.94,72278.5,-5.71,-6.51,-6.47,0,*54
1521180018.8,12301,8.94,72270.0,-5.71,-6.51,-6.47,0,*55
1521180020.03,12302,8.94,72272.0,-5.73,-6.55,-6.51,0,*57
1521180021.25,12303,8.94,72266.8,-5.73,-6.55,-6.55,0,*52
1521180022.46,12304,8.94,72268.0,-5.71,-6.51,-6.51,0,*57
1521180023.67,12305,8.94,72272.0,-5.71,-6.51,-6.51,0,*56
1521180024.87,12306,9.0,72274.5,-5.71,-6.51,-6.51,0,*55
1521180026.08,12307,9.0,72280.5,-5.71,-6.51,-6.51,0,*54
1521180027.29,12308,8.94,72272.8,-5.71,-6.51,-6.47,0,*5C
1521180028.49,12309,8.94,72274.5,-5.71,-6.47,-6.43,0,*5E
1521180029.7,12310,8.94,72274.0,-5.71,-6.51,-6.47,0,*55
1521180030.91,12311,8.94,72286.5,-5.71,-6.51,-6.47,0,*54
1521180032.11,12312,9.0,72288.8,-5.71,-6.51,-6.47,0,*57
1521180033.32,12313,8.94,72286.3,-5.71,-6.51,-6.47,0,*56
1521180034.53,12314,8.94,72284.5,-5.71,-6.51,-6.51,0,*56
1521180035.74,12315,8.94,72278.8,-5.71,-6.51,-6.47,0,*50
1521180036.94,12316,8.94,72266.0,-5.71,-6.51,-6.47,0,*53
1521180038.15,12317,8.94,72274.0,-5.71,-6.51,-6.51,0,*55
1521180039.35,12318,8.94,72270.3,-5.71,-6.47,-6.51,0,*5D
1521180040.56,12319,9.0,72272.0,-5.71,-6.51,-6.51,0,*5B
1521180041.77,12320,8.94,72274.5,-5.71,-6.51,-6.51,0,*51
1521180042.98,12321,8.94,72272.3,-5.71,-6.51,-6.47,0,*57
1521180044.19,12322,8.94,72268.5,-5.71,-6.51,-6.51,0,*53
1521180045.41,12323,8.94,72274.0,-5.69,-6.43,-6.47,0,*5F
1521180046.62,12324,8.94,72268.8,-5.71,-6.51,-6.51,0,*55
1521180047.83,12325,8.94,72262.5,-5.71,-6.51,-6.51,0,*54
1521180049.03,12326,8.94,72260.3,-5.71,-6.51,-6.47,0,*50
1521180050.24,12327,9.0,72264.0,-5.71,-6.51,-6.51,0,*56
1521180051.46,12328,9.0,72260.3,-5.69,-6.47,-6.47,0,*50
1521180052.67,12329,9.0,72266.0,-5.71,-6.51,-6.51,0,*58
1521180053.89,12330,8.94,72262.0,-5.69,-6.47,-6.43,0,*5D
1521180055.1,12331,8.94,72258.8,-5.71,-6.51,-6.47,0,*56
1521180056.31,12332,8.94,72262.3,-5.71,-6.51,-6.51,0,*52
1521180057.53,12333,8.94,72266.0,-5.69,-6.47,-6.43,0,*5E
1521180058.73,12334,8.94,72266.3,-5.71,-6.47,-6.51,0,*53
1521180059.93,12335,9.0,72264.0,-5.71,-6.47,-6.43,0,*51
1521180061.16,12336,9.0,72262.0,-5.69,-6.47,-6.47,0,*5F
1521180062.36,12337,9.0,72260.5,-5.71,-6.51,-6.47,0,*50
1521180063.57,12338,9.0,72262.8,-5.71,-6.51,-6.51,0,*58
1521180064.79,12339,8.94,72258.5,-5.69,-6.47,-6.47,0,*50
1521180066.02,12340,8.94,72260.0,-5.69,-6.47,-6.43,0,*5A
1521180067.22,12341,8.94,72262.3,-5.71,-6.51,-6.47,0,*51
1521180068.43,12342,9.0,72260.5,-5.71,-6.51,-6.47,0,*52
1521180069.64,12343,8.94,72250.0,-5.71,-6.51,-6.51,0,*54
1521180070.84,12344,8.94,72250.8,-5.71,-6.47,-6.47,0,*53
1521180072.06,12345,8.94,72262.5,-5.69,-6.47,-6.47,0,*5B
1521180073.27,12346,9.0,72264.8,-5.71,-6.51,-6.47,0,*56
1521180074.49,12347,9.0,72266.3,-5.69,-6.47,-6.47,0,*59
1521180075.7,12348,8.94,72270.0,-5.71,-6.51,-6.51,0,*5F
1521180076.91,12349,9.0,72274.3,-5.71,-6.51,-6.47,0,*59
1521180078.11,12350,8.94,72272.8,-5.71,-6.51,-6.47,0,*51
1521180079.32,12351,9.0,72270.8,-5.71,-6.43,-6.47,0,*53
1521180080.53,12352,8.94,72270.3,-5.71,-6.51,-6.51,0,*54
1521180081.73,12353,8.94,72274.8,-5.71,-6.51,-6.47,0,*52
1521180082.94,12354,8.94,72274.3,-5.71,-6.51,-6.47,0,*55
1521180084.15,12355,8.94,72268.3,-5.71,-6.51,-6.51,0,*53
1521180085.35,12356,8.94,72274.3,-5.71,-6.47,-6.51,0,*57
1521180086.56,12357,8.94,72272.0,-5.71,-6.51,-6.51,0,*51
1521180087.77,12358,8.94,72276.0,-5.71,-6.51,-6.51,0,*5E
1521180088.99,12359,8.94,72274.0,-5.69,-6.47,-6.43,0,*52
1521180090.19,12360,9.0,72264.8,-5.71,-6.43,-6.47,0,*51
1521180091.42,12361,8.94,72260.5,-5.69,-6.47,-6.43,0,*59
1521180092.62,12362,8.94,72268.5,-5.71,-6.51,-6.51,0,*57
1521180093.83,12363,8.94,72268.5,-5.71,-6.47,-6.51,0,*51
1521180095.05,12364,8.94,72270.3,-5.69,-6.47,-6.47,0,*58
1521180096.26,12365,8.94,72268.5,-5.71,-6.51,-6.51,0,*50
1521180097.46,12366,8.94,72266.8,-5.71,-6.51,-6.47,0,*54
1521180098.69,12367,9.0,72270.0,-5.69,-6.47,-6.47,0,*5B
1521180099.91,12368,8.94,72268.5,-5.69,-6.47,-6.43,0,*50
1521180101.13,12369,8.94,72268.5,-5.69,-6.47,-6.43,0,*51
1521180102.33,12370,9.0,72272.3,-5.71,-6.47,-6.47,0,*54
1521180103.55,12371,8.94,72268.8,-5.69,-6.47,-6.43,0,*58
1521180104.77,12372,9.0,72274.8,-5.69,-6.47,-6.47,0,*5F
1521180105.98,12373,8.94,72272.5,-5.71,-6.51,-6.51,0,*57
1521180107.18,12374,9.0,72276.8,-5.71,-6.47,-6.47,0,*50
1521180108.41,12375,9.0,72282.5,-5.69,-6.47,-6.47,0,*58
1521180109.61,12376,8.94,72276.5,-5.71,-6.51,-6.51,0,*52
1521180110.84,12377,8.94,72276.3,-5.69,-6.47,-6.47,0,*5A
1521180112.04,12378,8.94,72276.8,-5.71,-6.47,-6.47,0,*5C
1521180113.25,12379,8.94,72272.3,-5.71,-6.51,-6.51,0,*5D
1521180114.47,12380,8.94,72272.5,-5.69,-6.43,-6.47,0,*56
1521180115.69,12381,9.0,72280.0,-5.69,-6.43,-6.47,0,*57
1521180116.92,12382,8.94,72280.8,-5.69,-6.47,-6.43,0,*54
1521180118.14,12383,8.94,72276.8,-5.69,-6.47,-6.47,0,*51
1521180119.36,12384,8.94,72280.3,-5.69,-6.47,-6.47,0,*56
1521180120.58,12385,8.94,72278.5,-5.69,-6.47,-6.43,0,*53
1521180121.79,12386,9.0,72278.5,-5.71,-6.43,-6.47,0,*59
1521180123.01,12387,8.94,72278.8,-5.69,-6.47,-6.47,0,*55
1521180124.21,12388,8.94,72276.0,-5.71,-6.47,-6.51,0,*54
1521180125.43,12389,9.0,72282.8,-5.69,-6.43,-6.47,0,*5F
1521180126.64,12390,8.94,72278.5,-5.71,-6.51,-6.51,0,*5A
1521180127.86,12391,8.94,72280.5,-5.69,-6.47,-6.47,0,*52
1521180129.07,12392,8.94,72278.5,-5.71,-6.51,-6.51,0,*58
1521180130.28,12393,8.94,72282.3,-5.71,-6.51,-6.51,0,*59
1521180131.51,12394,8.94,72276.5,-5.69,-6.43,-6.47,0,*53
1521180132.71,12395,8.94,72282.5,-5.71,-6.51,-6.51,0,*5F
1521180133.93,12396,8.94,72276.5,-5.69,-6.47,-6.43,0,*51
1521180135.14,12397,9.0,72276.0,-5.71,-6.51,-6.51,0,*5D
1521180136.36,12398,8.94,72282.0,-5.69,-6.47,-6.47,0,*5B
1521180137.59,12399,8.94,72278.8,-5.69,-6.47,-6.47,0,*5A
1521180138.81,12400,8.94,72282.5,-5.69,-6.47,-6.47,0,*5D
1521180140.03,12401,8.94,72278.0,-5.69,-6.43,-6.43,0,*5C
1521180141.26,12402,8.94,72278.8,-5.69,-6.43,-6.47,0,*5B
1521180142.46,12403,9.0,72280.3,-5.71,-6.51,-6.47,0,*50
1521180143.69,12404,8.94,72276.3,-5.69,-6.47,-6.43,0,*5D
1521180144.91,12405,8.94,72282.5,-5.69,-6.43,-6.47,0,*5C
1521180146.13,12406,8.94,72282.5,-5.69,-6.43,-6.43,0,*5B
1521180147.34,12407,8.94,72284.5,-5.71,-6.51,-6.51,0,*53
1521180148.57,12408,8.94,72282.8,-5.69,-6.47,-6.47,0,*55
1521180149.77,12409,8.94,72272.3,-5.71,-6.51,-6.47,0,*5A
1521180150.99,12410,8.94,72276.0,-5.69,-6.47,-6.43,0,*58
1521180152.22,12411,8.94,72276.3,-5.69,-6.47,-6.47,0,*5D
1521180153.44,12412,9.0,72282.8,-5.69,-6.47,-6.47,0,*5E
1521180154.66,12413,8.94,72280.0,-5.69,-6.47,-6.43,0,*5B
1521180155.88,12414,8.94,72282.8,-5.69,-6.47,-6.43,0,*5C
1521180157.1,12415,8.94,72284.5,-5.69,-6.47,-6.43,0,*5D
1521180158.33,12416,8.94,72284.8,-5.69,-6.47,-6.47,0,*5A
1521180159.55,12417,9.0,72284.8,-5.69,-6.47,-6.47,0,*5B
1521180160.77,12418,8.94,72284.5,-5.69,-6.47,-6.47,0,*54
1521180161.99,12419,8.94,72288.3,-5.69,-6.47,-6.43,0,*51
1521180163.21,12420,9.0,72292.8,-5.69,-6.47,-6.47,0,*5F
1521180164.44,12421,8.94,72290.0,-5.69,-6.47,-6.47,0,*5E
1521180165.66,12422,8.94,72286.3,-5.69,-6.47,-6.43,0,*59
1521180166.88,12423,8.94,72290.3,-5.69,-6.43,-6.47,0,*58
1521180168.1,12424,9.0,72288.3,-5.69,-6.47,-6.43,0,*5F
1521180169.33,12425,9.0,72286.8,-5.69,-6.47,-6.43,0,*5E
1521180170.55,12426,8.94,72282.3,-5.69,-6.43,-6.47,0,*5D
1521180171.77,12427,8.94,72276.5,-5.69,-6.47,-6.47,0,*58
1521180172.99,12428,8.94,72278.8,-5.69,-6.47,-6.43,0,*53
1521180174.22,12429,9.0,72282.0,-5.69,-6.43,-6.43,0,*56
1521180175.44,12430,8.94,72278.5,-5.69,-6.43,-6.47,0,*5A
1521180176.66,12431,8.94,72278.3,-5.69,-6.47,-6.47,0,*5F
1521180177.89,12432,8.94,72278.8,-5.69,-6.47,-6.43,0,*58
1521180179.11,12433,9.0,72280.0,-5.69,-6.43,-6.47,0,*59
1521180180.33,12434,8.94,72272.8,-5.69,-6.47,-6.47,0,*5A
1521180181.55,12435,8.94,72274.8,-5.69,-6.47,-6.43,0,*5F
1521180182.78,12436,8.94,72278.3,-5.69,-6.43,-6.43,0,*58
1521180183.97,12437,8.94,72274.5,-5.67,-6.43,-6.43,0,*57
1521180185.2,12438,8.94,72270.3,-5.69,-6.47,-6.43,0,*52
1521180186.42,12439,8.94,72272.0,-5.69,-6.47,-6.47,0,*57
1521180187.64,12440,8.94,72274.3,-5.69,-6.43,-6.43,0,*59
1521180188.87,12441,8.94,72274.5,-5.69,-6.43,-6.43,0,*58
1521180190.06,12442,8.94,72274.8,-5.67,-6.47,-6.47,0,*55
1521180191.26,12443,8.94,72274.5,-5.67,-6.47,-6.43,0,*50
1521180192.45,12444,8.94,72278.3,-5.67,-6.47,-6.43,0,*57
1521180193.65,12445,9.0,72280.5,-5.67,-6.43,-6.47,0,*56
1521180194.85,12446,8.94,72278.0,-5.67,-6.47,-6.43,0,*55
1521180196.04,12447,9.0,72284.0,-5.67,-6.47,-6.47,0,*50
1521180197.24,12448,8.94,72282.0,-5.67,-6.47,-6.47,0,*5F
1521180198.43,12449,9.0,72276.3,-5.67,-6.47,-6.43,0,*5A
1521180199.65,12450,9.0,72280.8,-5.69,-6.47,-6.43,0,*5C
1521180200.85,12451,9.0,72286.3,-5.67,-6.47,-6.47,0,*57
1521180202.07,12452,8.94,72282.0,-5.69,-6.47,-6.43,0,*5E
1521180203.27,12453,8.94,72278.8,-5.67,-6.43,-6.47,0,*51
1521180204.47,12454,8.94,72276.3,-5.67,-6.43,-6.43,0,*52
1521180205.66,12455,8.94,72286.0,-5.67,-6.47,-6.47,0,*53
1521180206.86,12456,9.0,72286.5,-5.67,-6.47,-6.47,0,*50
1521180208.08,12457,8.94,72284.0,-5.69,-6.47,-6.47,0,*5F
1521180209.3,12458,8.94,72284.5,-5.69,-6.47,-6.43,0,*54
1521180210.52,12459,9.0,72286.5,-5.69,-6.43,-6.47,0,*55
1521180211.75,12460,9.0,72280.3,-5.69,-6.47,-6.43,0,*5F
1521180212.94,12461,8.94,72282.8,-5.67,-6.43,-6.47,0,*50
1521180214.14,12462,8.94,72284.0,-5.67,-6.47,-6.43,0,*53
1521180215.34,12463,9.0,72290.5,-5.67,-6.47,-6.47,0,*56
1521180216.53,12464,9.0,72276.3,-5.67,-6.47,-6.47,0,*51
1521180217.73,12465,8.94,72282.3,-5.67,-6.47,-6.43,0,*54
1521180218.92,12466,8.94,72280.3,-5.67,-6.47,-6.43,0,*57
1521180220.12,12467,9.0,72280.8,-5.67,-6.47,-6.47,0,*52
1521180221.31,12468,8.94,72274.8,-5.67,-6.43,-6.43,0,*5D
1521180222.51,12469,8.94,72278.8,-5.67,-6.43,-6.47,0,*58
1521180223.71,12470,9.0,72282.3,-5.67,-6.47,-6.47,0,*54
1521180224.9,12471,8.94,72278.5,-5.67,-6.47,-6.47,0,*55
1521180226.1,12472,8.94,72276.8,-5.67,-6.47,-6.43,0,*52
1521180227.29,12473,8.94,72282.3,-5.67,-6.47,-6.47,0,*57
1521180228.49,12474,9.0,72288.0,-5.67,-6.47,-6.43,0,*54
1521180229.68,12475,9.0,72282.0,-5.67,-6.47,-6.47,0,*51
1521180230.88,12476,8.94,72272.3,-5.67,-6.43,-6.47,0,*56
1521180232.08,12477,9.0,72282.3,-5.67,-6.47,-6.43,0,*57
1521180233.27,12478,8.94,72280.5,-5.67,-6.47,-6.47,0,*5C
1521180234.47,12479,8.94,72278.8,-5.67,-6.47,-6.43,0,*59
1521180235.69,12480,8.94,72280.3,-5.69,-6.47,-6.43,0,*51
1521180236.89,12481,8.94,72286.3,-5.67,-6.43,-6.43,0,*5A
1521180238.08,12482,8.94,72282.8,-5.67,-6.47,-6.43,0,*5D
1521180239.3,12483,9.0,72290.8,-5.65,-6.47,-6.47,0,*5A
1521180240.5,12484,9.0,72292.8,-5.67,-6.43,-6.47,0,*5B
1521180241.7,12485,9.0,72294.8,-5.67,-6.47,-6.47,0,*5E
1521180242.89,12486,9.0,72288.0,-5.67,-6.47,-6.47,0,*5D
1521180244.11,12487,8.94,72280.8,-5.65,-6.47,-6.47,0,*5E
1521180245.31,12488,8.94,72308.0,-5.67,-6.47,-6.43,0,*57
1521180246.53,12489,8.94,72300.0,-5.65,-6.47,-6.47,0,*50
1521180247.73,12490,9.0,72298.3,-5.67,-6.43,-6.47,0,*5E
1521180248.92,12491,9.0,72292.3,-5.67,-6.47,-6.43,0,*5F
1521180250.15,12492,8.94,72284.3,-5.65,-6.43,-6.47,0,*5E
1521180251.34,12493,9.0,72282.5,-5.67,-6.47,-6.47,0,*59
1521180252.54,12494,8.94,72274.3,-5.67,-6.47,-6.47,0,*5E
1521180253.73,12495,8.94,72276.8,-5.67,-6.47,-6.43,0,*5B
1521180254.93,12496,9.0,72276.0,-5.67,-6.47,-6.47,0,*5C
1521180256.13,12497,8.94,72280.8,-5.67,-6.43,-6.43,0,*5D
1521180257.32,12498,9.0,72274.5,-5.67,-6.43,-6.47,0,*56
1521180258.52,12499,8.94,72274.0,-5.67,-6.47,-6.43,0,*57
1521180259.71,12500,8.94,72266.5,-5.67,-6.47,-6.47,0,*52
1521180260.94,12501,9.0,72272.0,-5.65,-6.47,-6.47,0,*51
1521180262.13,12502,8.94,72268.0,-5.67,-6.47,-6.47,0,*50
1521180263.33,12503,8.94,72268.5,-5.67,-6.43,-6.43,0,*51
1521180264.52,12504,8.94,72266.3,-5.67,-6.47,-6.47,0,*56
1521180265.72,12505,9.0,72250.3,-5.67,-6.43,-6.47,0,*53
1521180266.94,12506,8.94,72254.5,-5.65,-6.47,-6.47,0,*56
1521180268.17,12507,8.94,72244.8,-5.65,-6.47,-6.47,0,*57
1521180269.36,12508,8.94,72264.0,-5.67,-6.47,-6.47,0,*5A
1521180270.56,12509,8.94,72258.8,-5.67,-6.43,-6.47,0,*5F
1521180271.75,12510,8.94,72264.8,-5.67,-6.47,-6.47,0,*53
1521180272.98,12511,9.0,72262.0,-5.65,-6.47,-6.47,0,*50
1521180274.2,12512,8.94,72266.5,-5.65,-6.43,-6.43,0,*53
1521180275.4,12513,8.94,72264.8,-5.67,-6.47,-6.47,0,*50
1521180276.59,12514,8.94,72268.3,-5.67,-6.47,-6.43,0,*53
1521180277.78,12515,8.94,72268.5,-5.67,-6.47,-6.43,0,*52
1521180279.01,12516,8.94,72250.5,-5.65,-6.47,-6.47,0,*57
1521180280.2,12517,8.94,72270.5,-5.67,-6.47,-6.43,0,*50
1521180281.43,12518,8.94,72248.8,-5.65,-6.43,-6.47,0,*5D
1521180282.62,12519,9.0,72236.3,-5.67,-6.47,-6.43,0,*5E
1521180283.84,12520,8.94,72250.5,-5.65,-6.47,-6.47,0,*52
1521180285.06,12521,9.0,72246.8,-5.65,-6.47,-6.47,0,*53
1521180286.26,12522,8.94,72274.3,-5.67,-6.47,-6.43,0,*56
1521180287.48,12523,8.94,72270.0,-5.65,-6.47,-6.43,0,*55
1521180288.7,12524,8.94,72272.0,-5.65,-6.47,-6.47,0,*56
1521180289.9,12525,8.94,72286.8,-5.67,-6.43,-6.43,0,*55
1521180291.09,12526,8.94,72270.5,-5.67,-6.47,-6.47,0,*56
1521180292.29,12527,8.94,72272.5,-5.67,-6.47,-6.43,0,*53
1521180293.49,12528,8.94,72274.8,-5.67,-6.47,-6.47,0,*58
1521180294.68,12529,9.0,72288.0,-5.67,-6.47,-6.47,0,*59
1521180295.88,12530,8.94,72288.0,-5.67,-6.47,-6.47,0,*51
1521180297.1,12531,8.94,72280.0,-5.65,-6.43,-6.43,0,*52
1521180298.29,12532,8.94,72280.8,-5.67,-6.47,-6.43,0,*57
1521180299.49,12533,8.94,72282.3,-5.67,-6.47,-6.47,0,*52
1521180300.69,12534,8.94,72286.0,-5.67,-6.47,-6.47,0,*55
1521180301.88,12535,9.0,72288.5,-5.67,-6.43,-6.47,0,*50
1521180303.08,12536,9.0,72284.0,-5.67,-6.47,-6.47,0,*57
1521180304.3,12537,9.0,72270.5,-5.65,-6.47,-6.47,0,*54
1521180305.52,12538,9.0,72270.0,-5.65,-6.47,-6.47,0,*5B
1521180306.74,12539,8.94,72262.8,-5.65,-6.47,-6.43,0,*5E
1521180307.96,12540,9.0,72250.3,-5.65,-6.47,-6.47,0,*54
1521180309.16,12541,8.94,72246.5,-5.67,-6.47,-6.43,0,*53
1521180310.38,12542,8.94,72246.3,-5.65,-6.43,-6.35,0,*57
1521180311.61,12543,8.94,72248.8,-5.65,-6.43,-6.47,0,*53
1521180312.8,12544,8.94,72256.5,-5.67,-6.43,-6.47,0,*56
1521180314.03,12545,8.94,72254.3,-5.65,-6.47,-6.47,0,*51
1521180315.22,12546,8.94,72260.0,-5.67,-6.43,-6.47,0,*54
1521180316.42,12547,8.94,72266.5,-5.67,-6.47,-6.47,0,*51
1521180317.61,12548,8.94,72268.3,-5.67,-6.47,-6.47,0,*5E
1521180318.81,12549,9.0,72266.8,-5.67,-6.47,-6.47,0,*5F
1521180320.01,12550,8.94,72268.0,-5.67,-6.47,-6.43,0,*53
1521180321.2,12551,8.94,72258.5,-5.67,-6.43,-6.43,0,*56
1521180322.42,12552,8.94,72268.5,-5.65,-6.47,-6.43,0,*53
1521180323.62,12553,8.94,72268.3,-5.67,-6.47,-6.47,0,*54
1521180324.84,12554,9.0,72276.0,-5.65,-6.47,-6.43,0,*55
1521180326.06,12555,8.94,72276.8,-5.65,-6.43,-6.43,0,*50
1521180327.28,12556,8.94,72276.0,-5.65,-6.47,-6.47,0,*53
1521180328.51,12557,8.94,72274.8,-5.65,-6.43,-6.47,0,*56
1521180329.71,12558,8.94,72272.3,-5.67,-6.43,-6.47,0,*5B
1521180330.9,12559,8.94,72270.5,-5.67,-6.47,-6.47,0,*5E
1521180332.12,12560,8.94,72268.8,-5.65,-6.47,-6.47,0,*56
1521180333.35,12561,9.0,72272.8,-5.65,-6.47,-6.43,0,*53
1521180334.54,12562,9.0,72268.5,-5.67,-6.47,-6.43,0,*52
1521180335.74,12563,8.94,72268.8,-5.67,-6.47,-6.47,0,*57
1521180336.93,12564,8.94,72266.3,-5.67,-6.47,-6.47,0,*50
1521180338.13,12565,8.94,72260.3,-5.67,-6.47,-6.47,0,*51
1521180339.32,12566,8.94,72264.5,-5.67,-6.47,-6.47,0,*52
1521180340.52,12567,8.94,72262.8,-5.67,-6.47,-6.43,0,*57
1521180341.71,12568,8.94,72262.0,-5.67,-6.47,-6.43,0,*58
1521180342.94,12569,8.94,72254.3,-5.65,-6.43,-6.47,0,*5B
1521180344.16,12570,9.0,72262.5,-5.65,-6.47,-6.47,0,*57
1521180345.36,12571,8.94,72258.3,-5.67,-6.43,-6.47,0,*50
1521180346.58,12572,9.0,72258.0,-5.65,-6.47,-6.47,0,*55
1521180347.8,12573,9.0,72258.3,-5.65,-6.47,-6.47,0,*54
1521180348.99,12574,9.0,72248.8,-5.67,-6.47,-6.43,0,*55
1521180350.19,12575,9.0,72242.5,-5.67,-6.43,-6.47,0,*54
1521180351.39,12576,8.94,72242.8,-5.67,-6.47,-6.47,0,*53
1521180352.61,12577,9.0,72244.5,-5.65,-6.47,-6.43,0,*54
1521180353.83,12578,9.0,72250.3,-5.65,-6.47,-6.43,0,*5B
1521180355.03,12579,8.94,72244.5,-5.67,-6.43,-6.47,0,*58
1521180356.22,12580,8.94,72238.8,-5.67,-6.47,-6.43,0,*5E
1521180357.44,12581,8.94,72240.0,-5.65,-6.47,-6.43,0,*5D
1521180358.66,12582,8.94,72242.3,-5.65,-6.47,-6.43,0,*5E
1521180359.86,12583,8.94,72244.8,-5.67,-6.47,-6.47,0,*59
1521180361.05,12584,8.94,72242.3,-5.67,-6.47,-6.47,0,*5E
1521180362.28,12585,9.0,72246.5,-5.65,-6.47,-6.47,0,*5D
1521180363.5,12586,8.94,72250.3,-5.65,-6.47,-6.43,0,*5A
1521180364.72,12587,8.94,72248.5,-5.65,-6.47,-6.43,0,*5B
1521180365.94,12588,9.0,72258.3,-5.65,-6.43,-6.47,0,*54
1521180367.16,12589,8.94,72256.5,-5.65,-6.47,-6.47,0,*51
1521180368.38,12590,8.94,72264.0,-5.65,-6.47,-6.47,0,*59
1521180369.58,12591,8.94,72262.5,-5.67,-6.47,-6.47,0,*5A
1521180370.77,12592,8.94,72252.8,-5.67,-6.47,-6.43,0,*5D
1521180371.97,12593,8.94,72240.3,-5.67,-6.47,-6.47,0,*58
1521180373.16,12594,9.0,72246.8,-5.67,-6.47,-6.43,0,*5B
1521180374.36,12595,8.94,72244.5,-5.67,-6.47,-6.43,0,*5A
1521180375.58,12596,8.94,72246.5,-5.65,-6.43,-6.47,0,*5B
1521180376.8,12597,8.94,72246.5,-5.65,-6.47,-6.47,0,*5E
1521180378.0,12598,8.94,72246.0,-5.67,-6.47,-6.43,0,*57
1521180379.22,12599,8.94,72242.3,-5.65,-6.47,-6.43,0,*54
1521180380.44,12600,9.0,72244.8,-5.65,-6.47,-6.47,0,*53
1521180381.64,12601,8.94,72236.5,-5.67,-6.47,-6.47,0,*50
1521180382.83,12602,8.94,72236.8,-5.67,-6.47,-6.43,0,*57
1521180384.03,12603,8.94,72234.0,-5.67,-6.43,-6.43,0,*52
1521180385.25,12604,8.94,72240.0,-5.65,-6.43,-6.47,0,*53
1521180386.45,12605,9.0,72238.5,-5.67,-6.47,-6.43,0,*50
1521180387.67,12606,8.94,72242.5,-5.65,-6.47,-6.47,0,*55
1521180388.89,12607,9.0,72246.8,-5.65,-6.47,-6.47,0,*54
1521180390.11,12608,8.94,72242.5,-5.65,-6.47,-6.47,0,*5B
1521180391.33,12609,9.0,72242.8,-5.65,-6.47,-6.47,0,*5A
1521180392.53,12610,8.94,72242.0,-5.67,-6.47,-6.43,0,*54
1521180393.75,12611,9.0,72246.3,-5.65,-6.47,-6.43,0,*57
1521180394.97,12612,9.0,72252.0,-5.65,-6.43,-6.47,0,*54
1521180396.2,12613,9.0,72254.5,-5.65,-6.47,-6.47,0,*51
1521180397.39,12614,9.0,72250.8,-5.67,-6.47,-6.47,0,*54
1521180398.61,12615,8.94,72248.3,-5.65,-6.47,-6.43,0,*53
1521180399.83,12616,8.94,72248.3,-5.65,-6.47,-6.43,0,*50
1521180401.05,12617,9.0,72256.5,-5.65,-6.47,-6.47,0,*55
1521180402.25,12618,8.94,72242.8,-5.67,-6.47,-6.47,0,*58
1521180403.45,12619,8.94,72246.5,-5.67,-6.47,-6.47,0,*59
1521180404.64,12620,8.94,72244.5,-5.67,-6.47,-6.47,0,*53
1521180405.86,12621,8.94,72248.5,-5.65,-6.47,-6.43,0,*54
1521180407.08,12622,8.94,72252.0,-5.65,-6.47,-6.47,0,*53
1521180408.28,12623,8.94,72248.0,-5.67,-6.43,-6.47,0,*54
1521180409.5,12624,8.94,72250.8,-5.65,-6.47,-6.43,0,*51
1521180410.72,12625,8.94,72252.8,-5.65,-6.47,-6.47,0,*54
1521180411.95,12626,9.0,72256.0,-5.65,-6.47,-6.47,0,*57
1521180413.17,12627,9.0,72260.3,-5.65,-6.47,-6.47,0,*56
1521180414.39,12628,9.0,72268.5,-5.65,-6.47,-6.47,0,*59
1521180415.59,12629,9.0,72260.5,-5.67,-6.43,-6.47,0,*5E
1521180416.78,12630,8.94,72246.5,-5.67,-6.47,-6.47,0,*52
1521180418.0,12631,9.0,72248.8,-5.65,-6.47,-6.43,0,*55
1521180419.22,12632,8.94,72258.8,-5.65,-6.47,-6.47,0,*52
1521180420.45,12633,9.0,72260.5,-5.65,-6.47,-6.47,0,*53
1521180421.67,12634,8.94,72252.3,-5.65,-6.47,-6.43,0,*50
1521180422.89,12635,8.94,72246.8,-5.65,-6.47,-6.43,0,*51
1521180424.11,12636,8.94,72246.0,-5.65,-6.47,-6.47,0,*56
1521180425.3,12637,8.94,72254.5,-5.67,-6.47,-6.47,0,*55
1521180426.5,12638,8.94,72262.0,-5.67,-6.47,-6.47,0,*5A
1521180427.72,12639,8.94,72266.8,-5.65,-6.47,-6.47,0,*59
1521180428.94,12640,9.0,72268.5,-5.65,-6.47,-6.47,0,*57
1521180430.17,12641,8.94,72260.0,-5.65,-6.43,-6.47,0,*52
1521180431.39,12642,8.94,72260.5,-5.65,-6.47,-6.47,0,*55
1521180432.61,12643,8.94,72260.5,-5.65,-6.47,-6.47,0,*54
1521180433.83,12644,8.94,72260.5,-5.65,-6.47,-6.47,0,*53
1521180435.05,12645,8.94,72252.5,-5.65,-6.47,-6.43,0,*56
1521180436.27,12646,8.94,72260.0,-5.65,-6.47,-6.47,0,*51
1521180437.49,12647,8.94,72256.5,-5.65,-6.47,-6.47,0,*50
1521180438.69,12648,8.94,72254.0,-5.67,-6.47,-6.47,0,*5D
1521180439.91,12649,8.94,72252.8,-5.65,-6.47,-6.47,0,*5E
1521180441.13,12650,8.94,72254.3,-5.65,-6.43,-6.43,0,*56
1521180442.36,12651,9.0,72258.0,-5.65,-6.47,-6.47,0,*57
1521180443.58,12652,8.94,72248.5,-5.65,-6.47,-6.47,0,*54
1521180444.8,12653,8.94,72240.8,-5.65,-6.47,-6.43,0,*51
1521180446.02,12654,8.94,72240.5,-5.65,-6.47,-6.47,0,*52
1521180447.22,12655,8.94,72242.5,-5.63,-6.39,-6.43,0,*58
1521180448.44,12656,9.0,72240.8,-5.65,-6.47,-6.47,0,*50
1521180449.66,12657,8.94,72238.0,-5.65,-6.43,-6.47,0,*55
1521180450.86,12658,8.94,72242.0,-5.67,-6.47,-6.47,0,*5C
1521180452.08,12659,8.94,72246.8,-5.65,-6.47,-6.43,0,*5B
1521180453.3,12660,8.94,72252.0,-5.65,-6.47,-6.43,0,*51
1521180454.52,12661,8.94,72252.3,-5.65,-6.47,-6.43,0,*50
1521180455.74,12662,8.94,72256.0,-5.65,-6.47,-6.47,0,*57
1521180456.96,12663,8.94,72258.3,-5.65,-6.47,-6.43,0,*52
1521180458.16,12664,8.94,72256.5,-5.67,-6.47,-6.47,0,*53
1521180459.35,12665,8.94,72260.3,-5.67,-6.47,-6.47,0,*52
1521180460.55,12666,8.94,72264.3,-5.67,-6.47,-6.47,0,*51
1521180461.77,12667,8.94,72272.0,-5.65,-6.47,-6.47,0,*52
1521180462.99,12668,8.94,72272.3,-5.65,-6.47,-6.43,0,*59
1521180464.21,12669,8.94,72268.5,-5.65,-6.47,-6.47,0,*5C
1521180465.44,12670,8.94,72270.3,-5.65,-6.47,-6.47,0,*54
1521180466.66,12671,8.94,72266.5,-5.65,-6.47,-6.47,0,*55
1521180467.88,12672,8.94,72268.0,-5.65,-6.47,-6.47,0,*56
1521180469.1,12673,8.94,72264.3,-5.65,-6.43,-6.47,0,*53
1521180470.32,12674,9.0,72270.3,-5.65,-6.47,-6.47,0,*50
1521180471.54,12675,8.94,72266.5,-5.65,-6.47,-6.47,0,*51
1521180472.74,12676,8.94,72264.5,-5.67,-6.47,-6.43,0,*54
1521180473.96,12677,9.0,72262.0,-5.65,-6.47,-6.47,0,*53
1521180475.18,12678,8.94,72256.3,-5.65,-6.47,-6.47,0,*5C
1521180476.4,12679,9.0,72260.0,-5.65,-6.47,-6.47,0,*5D
1521180477.62,12680,8.94,72264.8,-5.65,-6.47,-6.47,0,*5B
1521180478.83,12681,8.94,72270.3,-5.63,-6.43,-6.43,0,*5C
1521180480.05,12682,8.94,72266.8,-5.65,-6.47,-6.47,0,*59
1521180481.27,12683,8.94,72262.0,-5.65,-6.47,-6.47,0,*58
1521180482.49,12684,8.94,72264.0,-5.65,-6.47,-6.47,0,*5F
1521180483.71,12685,8.94,72260.8,-5.65,-6.47,-6.47,0,*5E
1521180484.93,12686,8.94,72256.5,-5.65,-6.47,-6.43,0,*59
1521180486.15,12687,8.94,72258.5,-5.65,-6.47,-6.43,0,*58
1521180487.37,12688,8.94,72266.0,-5.65,-6.47,-6.47,0,*53
1521180488.6,12689,8.94,72266.3,-5.65,-6.47,-6.47,0,*52
1521180489.82,12690,9.0,72264.8,-5.65,-6.47,-6.47,0,*5A
1521180491.04,12691,8.94,72248.5,-5.65,-6.43,-6.47,0,*5F
1521180492.26,12692,9.0,72258.0,-5.65,-6.47,-6.47,0,*58
1521180493.46,12693,8.94,72254.8,-5.67,-6.47,-6.47,0,*5B
1521180494.68,12694,8.94,72256.3,-5.65,-6.47,-6.43,0,*5A
1521180495.9,12695,8.94,72258.5,-5.65,-6.47,-6.47,0,*5F
1521180497.13,12696,8.94,72258.0,-5.65,-6.51,-6.47,0,*5B
1521180498.33,12697,8.94,72256.3,-5.63,-6.43,-6.39,0,*56
1521180499.53,12698,8.94,72266.5,-5.63,-6.43,-6.43,0,*54
1521180500.73,12699,8.94,72262.0,-5.63,-6.43,-6.43,0,*55
1521180501.95,12700,8.94,72266.3,-5.65,-6.47,-6.47,0,*52
1521180503.17,12701,8.94,72266.5,-5.65,-6.47,-6.43,0,*57
1521180504.39,12702,8.94,72268.3,-5.65,-6.47,-6.47,0,*50
1521180505.61,12703,9.0,72270.0,-5.65,-6.47,-6.43,0,*55
1521180506.84,12704,8.94,72262.3,-5.65,-6.47,-6.47,0,*56
1521180508.06,12705,8.94,72260.3,-5.65,-6.47,-6.47,0,*57
1521180509.28,12706,8.94,72262.5,-5.65,-6.43,-6.47,0,*50
1521180510.5,12707,9.0,72260.3,-5.65,-6.47,-6.47,0,*55
1521180511.72,12708,8.94,72262.5,-5.65,-6.47,-6.47,0,*5A